Sauk Centre, MN

1:51 AM CST on December 10, 2019 (GMT -0600)
Sauk Centre

Weather History for KD39 - October, 2019

Change the Weather History Date:

Friday, October 4, 2019

  Actual Average (KGHW) Record (KGHW)
Temperature  
Mean Temperature 44 °F -  
Max Temperature 47 °F 62 °F 82 °F (1987)
Min Temperature 41 °F 39 °F 24 °F (1989)
Degree Days  
Heating Degree Days 21    
Moisture  
Dew Point 38 °F    
Average Humidity 82    
Maximum Humidity 95    
Minimum Humidity 71    
Precipitation  
Precipitation 0.06 in - - ()
Sea Level Pressure  
Sea Level Pressure 30.34 in    
Wind  
Wind Speed 5 mph ()    
Max Wind Speed 14 mph    
Max Gust Speed 21 mph    
Visibility 10.0 miles    
Events Rain    
Averages and records for this station are not official NWS values.
T = Trace of Precipitation, MM = Missing Value Source: Averaged Metar Reports

Daily Weather History Graph

Daily Weather History Graph

Search for Another Location

Airport or City:

Astronomy

Oct. 04, 2019 Rise Set
Actual Time 7:21 AM CDT 6:54 PM CDT
Civil Twilight 6:51 AM CDT 7:24 PM CDT
Nautical Twilight 6:17 AM CDT 7:58 PM CDT
Astronomical Twilight 5:42 AM CDT 8:33 PM CDT
Moon 2:11 PM CDT (10/4) 11:07 PM CDT (10/4)
Length of Visible Light 12h 32m
Length of Day
11h 32m
Waxing Crescent, 40% of the Moon is Illuminated
Oct 4
Waxing Crescent
Oct 5
First Quarter
Oct 13
Full
Oct 21
Last Quarter
Oct 27
New

Hourly Weather History & Observations

Time (CDT) Temp. Windchill Dew Point Humidity Pressure Visibility Wind Dir Wind Speed Gust Speed Precip Events Conditions
12:16 AM 41.9 °F - 39.6 °F 91% 30.39 in 10.0 mi Calm Calm - N/A   Overcast
12:35 AM 42.1 °F 40.2 °F 39.2 °F 90% 30.39 in 10.0 mi NNE 3.5 mph - N/A   Overcast
12:36 AM 42.1 °F - 39.2 °F 90% 30.39 in 10.0 mi Calm Calm - N/A   Overcast
12:55 AM 41.9 °F - 38.8 °F 89% 30.39 in 10.0 mi Calm Calm - N/A   Overcast
12:56 AM 41.9 °F - 38.8 °F 89% 30.39 in 10.0 mi Calm Calm - N/A   Overcast
1:15 AM 42.1 °F - 38.8 °F 88% 30.40 in 10.0 mi Calm Calm - N/A   Overcast
1:20 AM 42.1 °F - 38.5 °F 87% 30.40 in 10.0 mi Calm Calm - N/A   Overcast
1:37 AM 42.1 °F - 38.7 °F 88% 30.40 in 10.0 mi Calm Calm - N/A   Overcast
1:55 AM 42.1 °F - 38.3 °F 86% 30.41 in 10.0 mi Calm Calm - N/A   Overcast
2:15 AM 42.1 °F - 39.0 °F 89% 30.41 in 10.0 mi Calm Calm - N/A   Overcast
2:35 AM 42.1 °F 40.2 °F 38.5 °F 87% 30.41 in 10.0 mi NE 3.5 mph - N/A   Overcast
2:36 AM 42.1 °F 40.2 °F 38.5 °F 87% 30.41 in 10.0 mi NE 3.5 mph - N/A   Overcast
2:59 AM 42.3 °F - 38.1 °F 85% 30.41 in 10.0 mi Calm Calm - N/A   Overcast
3:16 AM 42.3 °F - 37.9 °F 85% 30.41 in 10.0 mi Calm Calm - N/A   Overcast
3:36 AM 42.3 °F - 38.1 °F 85% 30.41 in 10.0 mi Calm Calm - N/A   Overcast
3:55 AM 42.1 °F 39.2 °F 38.5 °F 87% 30.41 in 10.0 mi East 4.6 mph - N/A   Overcast
4:15 AM 41.9 °F - 38.7 °F 88% 30.42 in 10.0 mi Calm Calm - N/A   Overcast
4:19 AM 41.9 °F - 38.8 °F 89% 30.42 in 10.0 mi Calm Calm - N/A   Overcast
4:38 AM 41.9 °F - 39.0 °F 90% 30.41 in 10.0 mi Calm Calm - N/A   Overcast
4:55 AM 42.1 °F - 38.5 °F 87% 30.42 in 10.0 mi Calm Calm - N/A   Overcast
5:15 AM 41.9 °F 38.2 °F 38.3 °F 87% 30.42 in 10.0 mi SE 5.8 mph - N/A   Overcast
5:16 AM 41.9 °F 38.2 °F 38.1 °F 86% 30.42 in 10.0 mi SE 5.8 mph - N/A   Overcast
5:35 AM 42.1 °F 39.2 °F 36.5 °F 81% 30.43 in 10.0 mi SE 4.6 mph - N/A   Overcast
5:36 AM 42.1 °F 39.2 °F 36.7 °F 81% 30.43 in 10.0 mi SE 4.6 mph - N/A   Overcast
5:59 AM 42.1 °F 40.2 °F 36.9 °F 82% 30.43 in 10.0 mi SE 3.5 mph - N/A   Overcast
6:16 AM 41.9 °F 40.0 °F 38.5 °F 88% 30.43 in 10.0 mi SSE 3.5 mph - N/A   Overcast
6:35 AM 41.9 °F - 38.7 °F 88% 30.43 in 10.0 mi Calm Calm - N/A   Overcast
6:36 AM 41.9 °F - 38.7 °F 88% 30.43 in 10.0 mi Calm Calm - N/A   Overcast
6:55 AM 41.9 °F 40.0 °F 38.7 °F 88% 30.43 in 10.0 mi SE 3.5 mph - N/A   Overcast
7:15 AM 42.1 °F 38.4 °F 37.8 °F 85% 30.44 in 10.0 mi SE 5.8 mph - N/A   Overcast
7:19 AM 42.1 °F 38.4 °F 37.4 °F 83% 30.44 in 10.0 mi SE 5.8 mph - N/A   Overcast
7:38 AM 42.1 °F 37.7 °F 37.8 °F 85% 30.44 in 10.0 mi ESE 6.9 mph - N/A   Overcast
7:55 AM 41.9 °F 38.2 °F 37.8 °F 85% 30.44 in 10.0 mi ESE 5.8 mph - N/A   Overcast
8:15 AM 42.1 °F 39.2 °F 37.6 °F 84% 30.44 in 10.0 mi SE 4.6 mph - N/A   Overcast
8:16 AM 42.1 °F 39.2 °F 37.6 °F 84% 30.44 in 10.0 mi SE 4.6 mph - N/A   Overcast
8:35 AM 42.1 °F 38.4 °F 37.6 °F 84% 30.43 in 10.0 mi ESE 5.8 mph - N/A   Overcast
8:58 AM 42.4 °F 37.5 °F 37.9 °F 84% 30.43 in 7.0 mi ESE 8.1 mph - N/A   Overcast
9:17 AM 42.8 °F 38.0 °F 37.8 °F 82% 30.43 in 10.0 mi ESE 8.1 mph - N/A   Overcast
9:36 AM 42.8 °F 38.0 °F 37.4 °F 81% 30.43 in 10.0 mi ESE 8.1 mph - N/A   Overcast
9:55 AM 43.0 °F 38.2 °F 37.9 °F 82% 30.43 in 10.0 mi ESE 8.1 mph - N/A   Overcast
10:15 AM 43.3 °F 38.6 °F 37.9 °F 81% 30.42 in 10.0 mi ESE 8.1 mph - N/A   Overcast
10:19 AM 43.2 °F 38.4 °F 37.6 °F 81% 30.43 in 10.0 mi ESE 8.1 mph - N/A   Overcast
10:38 AM 43.2 °F 37.9 °F 37.6 °F 81% 30.42 in 10.0 mi SE 9.2 mph - N/A   Overcast
10:55 AM 43.5 °F 38.3 °F 37.4 °F 79% 30.41 in 10.0 mi ESE 9.2 mph - N/A   Overcast
11:15 AM 43.7 °F 37.3 °F 36.5 °F 76% 30.41 in 10.0 mi ESE 12.7 mph - N/A   Overcast
11:16 AM 43.7 °F 37.3 °F 36.5 °F 76% 30.41 in 10.0 mi ESE 12.7 mph - N/A   Overcast
11:35 AM 44.1 °F 39.0 °F 37.2 °F 77% 30.41 in 10.0 mi SE 9.2 mph - N/A   Overcast
11:57 AM 44.1 °F 39.5 °F 36.9 °F 76% 30.40 in 10.0 mi SE 8.1 mph - N/A   Overcast
12:15 PM 44.6 °F 38.8 °F 37.2 °F 75% 30.40 in 10.0 mi SE 11.5 mph - N/A   Overcast
12:35 PM 44.8 °F 39.9 °F 37.0 °F 74% 30.39 in 10.0 mi ESE 9.2 mph 16.1 mph N/A   Overcast
12:36 PM 44.8 °F 39.9 °F 37.2 °F 75% 30.39 in 10.0 mi ESE 9.2 mph - N/A   Overcast
12:55 PM 45.5 °F 40.3 °F 36.7 °F 71% 30.38 in 10.0 mi ESE 10.4 mph - N/A   Overcast
1:17 PM 45.7 °F 40.2 °F 37.0 °F 72% 30.37 in 10.0 mi SE 11.5 mph - N/A   Overcast
1:35 PM 45.9 °F 40.4 °F 37.4 °F 72% 30.36 in 10.0 mi ESE 11.5 mph 16.1 mph N/A   Overcast
1:55 PM 46.2 °F 41.2 °F 37.4 °F 71% 30.36 in 10.0 mi SE 10.4 mph - N/A   Overcast
1:56 PM 46.2 °F 40.8 °F 37.4 °F 71% 30.36 in 10.0 mi SE 11.5 mph - N/A   Overcast
2:15 PM 46.4 °F 42.9 °F 37.8 °F 72% 30.35 in 10.0 mi ESE 6.9 mph 17.3 mph N/A   Overcast
2:37 PM 47.1 °F - 38.8 °F 73% 30.33 in 10.0 mi SE 12.7 mph 16.1 mph N/A   Overcast
2:55 PM 46.8 °F - 38.5 °F 73% 30.33 in 10.0 mi SE 10.4 mph 18.4 mph N/A   Overcast
3:15 PM 46.8 °F - 38.5 °F 73% 30.31 in 10.0 mi ESE 11.5 mph 19.6 mph N/A   Overcast
3:16 PM 46.8 °F - 38.5 °F 73% 30.31 in 10.0 mi ESE 12.7 mph - N/A   Overcast
3:35 PM 46.4 °F 40.7 °F 38.1 °F 73% 30.31 in 10.0 mi SE 12.7 mph 18.4 mph N/A   Overcast
3:40 PM 46.4 °F 40.4 °F 38.1 °F 73% 30.30 in 10.0 mi ESE 13.8 mph 18.4 mph N/A   Overcast
3:57 PM 46.9 °F - 38.8 °F 73% 30.30 in 10.0 mi SE 12.7 mph 18.4 mph N/A   Overcast
4:15 PM 45.7 °F 39.8 °F 38.3 °F 75% 30.29 in 10.0 mi ESE 12.7 mph - N/A   Overcast
4:35 PM 45.7 °F 39.5 °F 37.9 °F 74% 30.27 in 10.0 mi ESE 13.8 mph 19.6 mph N/A   Overcast
4:36 PM 45.7 °F 40.2 °F 37.9 °F 74% 30.27 in 10.0 mi ESE 11.5 mph 19.6 mph N/A   Overcast
4:55 PM 45.5 °F 40.3 °F 38.1 °F 75% 30.26 in 10.0 mi SE 10.4 mph 17.3 mph N/A   Overcast
4:56 PM 45.5 °F 39.6 °F 38.1 °F 75% 30.26 in 10.0 mi SE 12.7 mph 18.4 mph N/A   Overcast
5:17 PM 44.8 °F 38.7 °F 37.6 °F 76% 30.26 in 10.0 mi ESE 12.7 mph - N/A   Overcast
5:35 PM 44.4 °F 38.6 °F 37.8 °F 77% 30.26 in 10.0 mi ESE 11.5 mph 16.1 mph N/A   Overcast
5:55 PM 44.2 °F 38.8 °F 37.9 °F 79% 30.25 in 10.0 mi ESE 10.4 mph 20.7 mph N/A   Overcast
5:56 PM 44.2 °F 38.4 °F 38.1 °F 79% 30.25 in 10.0 mi ESE 11.5 mph 17.3 mph N/A   Overcast
6:15 PM 44.1 °F 39.0 °F 37.8 °F 78% 30.25 in 10.0 mi SE 9.2 mph - N/A   Overcast
6:16 PM 44.1 °F 38.1 °F 37.8 °F 78% 30.25 in 10.0 mi SE 11.5 mph - N/A   Overcast
6:39 PM 43.7 °F 38.1 °F 37.4 °F 78% 30.24 in 10.0 mi SE 10.4 mph 18.4 mph N/A   Overcast
6:55 PM 43.7 °F 38.6 °F 37.8 °F 80% 30.24 in 10.0 mi SE 9.2 mph - N/A   Overcast
7:15 PM 43.7 °F 39.1 °F 37.8 °F 80% 30.24 in 10.0 mi ESE 8.1 mph - N/A   Overcast
7:16 PM 43.7 °F 39.7 °F 37.9 °F 80% 30.24 in 10.0 mi ESE 6.9 mph - N/A   Overcast
7:35 PM 43.7 °F 37.7 °F 38.1 °F 81% 30.22 in 10.0 mi ESE 11.5 mph - N/A   Overcast
7:36 PM 43.7 °F 37.3 °F 38.1 °F 81% 30.22 in 10.0 mi ESE 12.7 mph - N/A   Overcast
7:59 PM 43.7 °F 36.9 °F 37.9 °F 80% 30.21 in 10.0 mi ESE 13.8 mph 17.3 mph N/A   Overcast
8:16 PM 43.2 °F 37.9 °F 38.3 °F 83% 30.21 in 10.0 mi ESE 9.2 mph - N/A   Mostly Cloudy
8:36 PM 43.0 °F 37.7 °F 38.5 °F 84% 30.20 in 10.0 mi ESE 9.2 mph 16.1 mph N/A   Mostly Cloudy
8:55 PM 43.7 °F 37.7 °F 38.3 °F 81% 30.19 in 10.0 mi ESE 11.5 mph 17.3 mph N/A   Overcast
8:56 PM 43.7 °F 37.3 °F 38.3 °F 81% 30.20 in 10.0 mi ESE 12.7 mph 17.3 mph N/A   Overcast
9:15 PM 43.7 °F 37.7 °F 38.3 °F 81% 30.19 in 10.0 mi ESE 11.5 mph - N/A   Overcast
9:20 PM 43.7 °F 36.9 °F 38.5 °F 82% 30.19 in 10.0 mi ESE 13.8 mph 17.3 mph N/A   Overcast
9:38 PM 43.7 °F 38.1 °F 38.7 °F 82% 30.18 in 10.0 mi ESE 10.4 mph - N/A   Overcast
9:55 PM 43.9 °F 37.2 °F 39.2 °F 84% 30.18 in 10.0 mi ESE 13.8 mph - N/A   Overcast
10:15 PM 43.7 °F 36.9 °F 39.2 °F 84% 30.18 in 10.0 mi SE 13.8 mph 17.3 mph N/A   Overcast
10:16 PM 43.7 °F 37.3 °F 39.2 °F 84% 30.18 in 10.0 mi SE 12.7 mph 17.3 mph N/A   Light Drizzle
10:35 PM 43.2 °F 36.6 °F 40.1 °F 89% 30.17 in 10.0 mi ESE 12.7 mph 17.3 mph N/A Rain Light Rain
10:58 PM 42.8 °F 36.2 °F 40.5 °F 91% 30.15 in 10.0 mi ESE 12.7 mph - 0.02 in Rain Light Rain
11:16 PM 42.8 °F 36.6 °F 41.0 °F 93% 30.15 in 10.0 mi ESE 11.5 mph 19.6 mph 0.01 in Rain Rain
11:35 PM 42.4 °F 37.0 °F 41.0 °F 95% 30.14 in 10.0 mi ESE 9.2 mph - 0.04 in Rain Rain
11:55 PM 42.8 °F 38.6 °F 41.4 °F 95% 30.14 in 10.0 mi ESE 6.9 mph - 0.04 in Rain Light Rain
11:56 PM 42.8 °F 38.0 °F 41.4 °F 95% 30.14 in 10.0 mi ESE 8.1 mph - 0.04 in Rain Light Rain